Regional Weather Roundup
Issued by NWS

Home | Current Version | Previous Version | Graphics & Text | Print | Product List | Glossary On
Versions: 1 2 3 4 5 6 7 8 9 10 11 12 13 14 15 16 17 18 19 20 21 22 23 24 25 26 27 28 29 30 31 32 33 34 35 36 37 38 39 40 41 42 43 44 45 46 47 48 49 50
000
ASUS43 KDTX 011710
RWRMI
MICHIGAN HOURLY REGIONAL WEATHER ROUNDUP
NATIONAL WEATHER SERVICE DETROIT/PONTIAC MI
100 PM EDT MON SEP 01 2014

NOTE: "FAIR" INDICATES FEW OR NO CLOUDS BELOW 12,000 FEET WITH NO
SIGNIFICANT WEATHER AND/OR OBSTRUCTION TO VISIBILITY.

MIZ047>049-052>055-059>063-066>070-074>076-081>083-011800-
SOUTHEAST LOWER MICHIGAN

CITY           SKY/WX    TMP DP  RH WIND       PRES   REMARKS
ADRIAN         PTSUNNY   83  71  67 SW17G25   29.87F
ALMA           CLOUDY    79  72  78 S13G23    29.75F
ANN ARBOR      CLOUDY    79  70  73 S16       29.85F
BAD AXE        PTSUNNY   81  73  78 S16       29.81F
DETROIT CITY   CLOUDY    78  70  76 SW15G25   29.87F
DETROIT        PTSUNNY   78  72  81 S10       29.87F
FLINT          MOSUNNY   80  69  69 S15       29.81F
GROSSE ILE     CLOUDY    77  72  83 S13       29.87F
HILLSDALE      PTSUNNY   80  73  78 S14G21    29.85F
HOWELL         PTSUNNY   78  70  76 S16G22    29.83F

CITY           SKY/WX    TMP DP  RH WIND       PRES   REMARKS
JACKSON        PTSUNNY   80  70  71 S13       29.83F
LAMBERTVILLE   MOSUNNY   81  70  69 S12G20    29.87F
LANSING        PTSUNNY   81  70  69 S17       29.78F
LAPEER         NOT AVBL
MASON          CLOUDY    77  70  77 S9G16     29.82F
MONROE         PTSUNNY   81  72  74 S14       29.85F
MT. CLEMENS    PTSUNNY   76  71  86 S13       29.85F
PONTIAC        CLOUDY    76  68  76 S10G20    29.85F
PORT HOPE        N/A     83  68  60 VRB7      29.78F
PORT HURON     CLOUDY    77  72  83 S16G23    29.86F
TRI CITIES     PTSUNNY   82  71  69 S17G24    29.75F
YPSILANTI      PTSUNNY   82  71  69 S13       29.86F
$$
MIZ043>046-050>051-056>058-064>065-071>073-077>080-011800-
SOUTHWEST LOWER MICHIGAN

CITY           SKY/WX    TMP DP  RH WIND       PRES   REMARKS
BATTLE CREEK   CLOUDY    79  69  71 S22G28    29.80F
BENTON HARBOR  LGT RAIN  74  71  91 SW8       29.78R FOG
BIG RAPIDS     HVY RAIN  74  72  94 S10G17    29.72S
COLDWATER      CLOUDY    80  71  73 S12G21    29.83S
HOLLAND        LGT RAIN  75  72  90 SW15      29.77F FOG
GRAND RAPIDS   CLOUDY    80  74  81 S16G28    29.77F
KALAMAZOO      CLOUDY    80  70  71 S18G28    29.79F
MARSHALL       CLOUDY    78  70  75 S15G22    29.81S
MUSKEGON       CLOUDY    74  70  87 SW15G26   29.74F FOG
$$
MIZ016>042-011800-
NORTHERN LOWER MICHIGAN

CITY           SKY/WX    TMP DP  RH WIND       PRES   REMARKS
ALPENA         MOSUNNY   80  70  71 S18G26    29.72F
BEAVER ISLAND  CLOUDY    76  70  80 S12G17    29.65F
BELLAIRE       CLOUDY    78  68  72 S5        29.65F
CADILLAC       LGT RAIN  72  70  93 S9G24     29.70F
CHARLEVOIX     CLOUDY    78  71  77 S10       29.69F
FRANKFORT      LGT RAIN  69  65  88 W10G31    29.70R
GAYLORD        PTSUNNY   73  66  78 S15       29.72F
GRAYLING       CLOUDY    76  70  82 SE10G18   29.73F
HARBOR SPRINGS CLOUDY    80  68  68 S8        29.66F
HOUGHTON LAKE  PTSUNNY   76  69  79 S14G23    29.74F
MANISTEE         N/A     72  66  83 W22G31    29.71R
OSCODA         CLOUDY    78  70  78 S14G24    29.75F
PELLSTON       PTSUNNY   79  68  69 S9G18     29.66F
TRAVERSE CITY  TSTM      75  68  78 VRB5      29.64F
$$
MIZ007>008-015-011800-
EASTERN UPPER MICHIGAN

CITY           SKY/WX    TMP DP  RH WIND       PRES   REMARKS
KINROSS        PTSUNNY   75  70  83 SE12      29.68F
MACKINAC ISLAN PTSUNNY   76  70  84 SE5       29.67F
NEWBERRY       CLOUDY    69  67  92 SW8       29.65F
S. S. MARIE    CLOUDY    69  64  84 E8        29.68F
$$
MIZ004>006-011>014-085-011800-
CENTRAL UPPER MICHIGAN

CITY           SKY/WX    TMP DP  RH WIND       PRES   REMARKS
MANISTIQUE     RAIN      67  67 100 SW9       29.63F VSB 1/4
ESCANABA       CLOUDY    70  64  83 W15G22    29.64F
MENOMINEE      CLOUDY    66  63  88 SW6       29.66F
SAWYER-GWINN   LGT RAIN  66  64  94 S13       29.64S
$$
MIZ001>003-009>011-084-011800-
WESTERN UPPER MICHIGAN

CITY           SKY/WX    TMP DP  RH WIND       PRES   REMARKS
IRON MOUNTAIN  LGT RAIN  66  63  90 S9        29.64F
HOUGHTON       LGT RAIN  65  61  87 SW7       29.59S
COPPER HARBOR    N/A     67  63  87 VRB3      29.56S
$$

ABBREVIATIONS USED IN REMARKS
   TC - TEMPERATURE IN CELSIUS
  WCI - WIND CHILL INDEX
   HX - HEAT INDEX
  VSB - VISIBILITY




USA.gov is the U.S. government's official web portal to all federal, state and local government web resources and services.